ROMMA est une association bénévole à but non lucratif. Votre soutien est indispensable : ADHERER à ROMMA ou FAIRE un DON

Pinsot - (38, Isère)

Vallée du Haut Bréda (750 m)   Longitude: 06° 06' E   Latitude: 45° 21' N Station partenaire n°101
 

Détail journalier du     <<     >>

Température Precipitation Humidité Pression Vent Dir Rafale Dir. rafale Ensol.
Heure (°C) (mm) (%) (hPa) (km/h) (km/h) (min)
01:00 -2.1094102006SSO0
02:00 -1.709410205SSO13SSO0
03:00 -2.009410201SSO13S0
04:00 -2.009510191SSO10S0
05:00 -1.9095101906SSO0
06:00 -1.909510181SSO8SSO0
07:00 -1.709510192SSO11SSO0
08:00 -0.709410185SSO15S0
09:00 -0.90941018013SSO0
10:00 -0.709410181SSO13SSO0
11:00 -0.209410181SSO11SSO0
12:00 2.70.28410170014
13:00 5.6076101605SSO60
14:00 4.308610151ENE16ENE60
15:00 4.708410150050
16:00 3.408910140032
17:00 2.2092101408S0
18:00 1.2094101505SSO0
19:00 0.90931015011S0
20:00 0.6094101508SSO0
21:00 0.909210154SSO13S0
22:00 0.309410151SSO8SSO0
23:00 0.1094101506SSO0
minuit -0.1093101605SSO0

Graphique du 16-01-2019

 

Serveur OMMA